This demonstration page uses our WeatherBlox Daily Observations layout. Learn more.

39.92423, -83.80882

Hourly Observations for June 24, 2017

Temp ( °F °C ) Dew Point ( °F °C ) Humidity (%) Winds ( mph kmh ) Pressure ( in mb ) Visibility ( mi km ) Precip ( " mm )
12:56 am 00:56 Clear 64 17.8 63 17.2 96 96 WSW 8 13 29.84 1010 10 16.0934 0 0
1:56 am 01:56 Clear 63 17.2 62 16.7 97 97 WSW 8 13 29.84 1011 10 16.0934 0 0
2:56 am 02:56 Clear 62 16.7 61 16.1 96 96 WSW 6 9 29.85 1011 8 12.87472 0 0
3:56 am 03:56 Clear 61 16.1 60 15.6 97 97 SW 5 7 29.85 1011 9 14.48406 0 0
4:56 am 04:56 Clear 61 16.1 60 15.6 97 97 SW 8 13 29.86 1011 10 16.0934 0 0
5:56 am 05:56 Clear 61 16.1 59 15 93 93 SW 8 13 29.88 1012 10 16.0934 0 0
6:56 am 06:56 Sunny 62 16.7 60 15.6 93 93 WSW 8 13 29.9 1013 10 16.0934 0 0
7:56 am 07:56 Sunny 64 17.8 61 16.1 90 90 W 8 13 29.91 1013 10 16.0934 0 0
8:56 am 08:56 Sunny 66 18.9 60 15.6 81 81 WNW 9 15 29.94 1014 10 16.0934 0 0
9:56 am 09:56 Sunny 68 20 60 15.6 76 76 NW 12 19 29.95 1014 10 16.0934 0 0
10:56 am 10:56 Sunny 70 21.1 60 15.6 71 71 W 8 13 29.96 1015 10 16.0934 0 0
11:56 am 11:56 Mostly Cloudy 72 22.2 60 15.6 66 66 W 9 15 29.96 1015 10 16.0934 0 0
12:56 pm 12:56 Partly Cloudy 73 22.8 59 15 62 62 W 10 17 29.97 1015 10 16.0934 0 0
1:56 pm 13:56 Mostly Cloudy 75 23.9 60 15.6 60 60 WSW 14 22 29.98 1015 10 16.0934 0 0
2:56 pm 14:56 Mostly Cloudy 74 23.3 59 15 60 60 W 15 24 29.98 1015 10 16.0934 0 0
3:56 pm 15:56 Mostly Cloudy 77 25 59 15 54 54 W 12 19 29.98 1015 10 16.0934 0 0
4:56 pm 16:56 Mostly Cloudy 77 25 57 13.9 50 50 WSW 15 24 29.98 1015 10 16.0934 0 0
5:56 pm 17:56 Sunny 76 24.4 58 14.4 54 54 W 12 19 29.97 1015 10 16.0934 0 0
6:56 pm 18:56 Mostly Cloudy 74 23.3 56 13.3 54 54 W 9 15 29.98 1015 10 16.0934 0 0
7:56 pm 19:56 Mostly Sunny 72 22.2 56 13.3 57 57 WNW 12 19 29.99 1016 10 16.0934 0 0
8:56 pm 20:56 Sunny 70 21.1 54 12.2 57 57 WNW 12 19 30.02 1017 10 16.0934 0 0
9:56 pm 21:56 Clear 67 19.4 54 12.2 63 63 WNW 8 13 30.05 1018 10 16.0934 0 0
10:56 pm 22:56 Clear 65 18.3 54 12.2 68 68 WNW 8 13 30.07 1018 10 16.0934 0 0
11:56 pm 23:56 Clear 63 17.2 52 11.1 68 68 WNW 9 15 30.08 1019 10 16.0934 0 0

Powered by AerisWeather